,

(GMT )
Clinton

Weather History for CWCL - May, 2014

Change the Weather History Date:

Monday, May 19, 2014

  Actual Average Record
Temperature  
Mean Temperature 52 °F -  
Max Temperature 60 °F 57 °F 71 °F (2004)
Min Temperature 43 °F 34 °F 24 °F (2003)
Degree Days  
Heating Degree Days 14    
Growing Degree Days 2 (Base 50)    
Moisture  
Dew Point 46 °F    
Average Humidity 91    
Maximum Humidity 100    
Minimum Humidity 63    
Precipitation  
Precipitation 0.16 in - - ()
Sea Level Pressure  
Sea Level Pressure 29.92 in    
Wind  
Wind Speed 2 mph ()    
Max Wind Speed 8 mph    
Max Gust Speed -    
Visibility 7.3 miles    
Events      
Averages and records for this station are not official NWS values.
T = Trace of Precipitation, MM = Missing Value Source: Averaged Metar Reports

Daily Weather History Graph

Daily Weather History Graph

Search for Another Location

Airport or City:

Trip Planner

Search our weather history database for the weather conditions in past years. The results will help you decide how hot, cold, wet, or windy it might be!

Date:

Astronomy

May. 19, 2014 Rise Set
Actual Time 5:09 AM PDT 8:56 PM PDT
Civil Twilight 4:27 AM PDT 9:38 PM PDT
Nautical Twilight 3:30 AM PDT 10:36 PM PDT
Astronomical Twilight 1:58 AM PDT 12:11 AM PDT
Moon 12:37 AM PDT (5/19) 10:25 AM PDT (5/19)
Length of Visible Light 17h 10m
Length of Day
15h 46m
Waning Gibbous, 70% of the Moon is Illuminated
May 19
Waning Gibbous
May 21
Last Quarter
May 28
New
Jun 5
First Quarter
Jun 12
Full

Hourly Weather History & Observations

Time (PDT) Temp. Windchill Dew Point Humidity Pressure Visibility Wind Dir Wind Speed Gust Speed Precip Events Conditions
12:00 AM 44.6 °F - 42.8 °F 93% 29.85 in 9.0 mi Calm Calm - N/A   Unknown
12:01 AM 44.6 °F - 42.8 °F 93% 29.80 in 9.0 mi Calm Calm - N/A   Unknown
1:00 AM 44.6 °F - 42.8 °F 93% 29.85 in 9.0 mi Calm Calm - N/A   Unknown
1:19 AM 44.6 °F - 42.8 °F 93% 29.81 in 9.0 mi Calm Calm - N/A   Unknown
2:00 AM 44 °F - 43 °F 95% 29.86 in 9 mi Calm Calm - -  
2:00 AM 44.6 °F - 42.8 °F 93% 29.86 in 9.0 mi Calm Calm - N/A   Unknown
2:58 AM 44.6 °F - 42.8 °F 93% 29.82 in 9.0 mi Calm Calm - N/A   Unknown
3:00 AM 44.6 °F - 42.8 °F 93% 29.86 in 9.0 mi Calm Calm - N/A   Unknown
3:21 AM 44.6 °F - 42.8 °F 93% 29.83 in 9.0 mi Calm Calm - N/A   Unknown
3:47 AM 44.6 °F - 42.8 °F 93% 29.83 in 9.0 mi Calm Calm - N/A   Unknown
4:00 AM 44.6 °F - 42.8 °F 93% 29.87 in 9.0 mi Calm Calm - N/A   Unknown
4:30 AM 42.8 °F - 42.8 °F 100% 29.83 in 9.0 mi Calm Calm - N/A   Unknown
4:44 AM 42.8 °F - 42.8 °F 100% 29.84 in 9.0 mi Calm Calm - N/A   Unknown
4:45 AM 42.8 °F - 42.8 °F 100% 29.84 in 9.0 mi Calm Calm - N/A   Unknown
5:00 AM 43 °F - 42 °F 97% 29.88 in 9 mi Calm Calm - -  
5:00 AM 42.8 °F - 42.8 °F 100% 29.88 in 9.0 mi Calm Calm - N/A   Unknown
5:16 AM 42.8 °F - 42.8 °F 100% 29.84 in 4.0 mi Calm Calm - N/A   Unknown
6:56 AM 44.6 °F - 44.6 °F 100% 29.87 in 9.0 mi South 2.3 mph - N/A   Unknown
7:49 AM 46.4 °F - 44.6 °F 93% 29.88 in 9.0 mi South 2.3 mph - N/A   Unknown
8:00 AM 46 °F - 45 °F 95% 29.92 in 9 mi South 2.3 mph - -  
8:00 AM 46.4 °F - 44.6 °F 93% 29.92 in 9.0 mi South 2.3 mph - N/A   Unknown
8:09 AM 46.4 °F - 44.6 °F 93% 29.88 in 9.0 mi SSE 2.3 mph - N/A   Unknown
8:15 AM 46.4 °F - 44.6 °F 93% 29.88 in 9.0 mi South 2.3 mph - N/A   Unknown
8:41 AM 46.4 °F - 44.6 °F 93% 29.89 in 9.0 mi Calm Calm - N/A   Unknown
9:00 AM 46.4 °F - 44.6 °F 93% 29.94 in 9.0 mi South 2.3 mph - N/A   Unknown
10:00 AM 48.2 °F - 46.4 °F 93% 29.95 in 3.0 mi SSE 2.3 mph - N/A   Unknown
10:05 AM 48.2 °F - 46.4 °F 93% 29.91 in 5.0 mi Calm Calm - N/A   Unknown
10:19 AM 48.2 °F - 44.6 °F 87% 29.91 in 2.5 mi South 2.3 mph - N/A   Unknown
10:29 AM 48.2 °F - 46.4 °F 93% 29.91 in 2.5 mi Calm Calm - N/A   Unknown
10:35 AM 48.2 °F - 46.4 °F 93% 29.91 in 6.0 mi Calm Calm - N/A   Unknown
10:58 AM 48.2 °F - 46.4 °F 93% 29.92 in 9.0 mi Calm Calm - N/A   Unknown
11:00 AM 48 °F - 46 °F 90% 29.96 in 9 mi Calm Calm - -  
11:00 AM 48.2 °F - 46.4 °F 93% 29.96 in 9.0 mi Calm Calm - N/A   Unknown
11:10 AM 48.2 °F - 46.4 °F 93% 29.92 in 9.0 mi Calm Calm - N/A   Unknown
11:16 AM 48.2 °F - 46.4 °F 93% 29.92 in 9.0 mi ESE 2.3 mph - N/A   Unknown
11:57 AM 51.8 °F - 46.4 °F 82% 29.92 in 9.0 mi SSE 4.6 mph - N/A   Unknown
12:00 PM 51.8 °F - 46.4 °F 82% 29.96 in 9.0 mi SSW 5.8 mph - N/A   Unknown
12:09 PM 50.0 °F - 48.2 °F 94% 29.92 in 3.0 mi SSW 3.5 mph - N/A   Unknown
12:16 PM 50.0 °F - 48.2 °F 94% 29.92 in 4.0 mi SSW 3.5 mph - N/A   Unknown
12:21 PM 51.8 °F - 46.4 °F 82% 29.93 in 9.0 mi South 3.5 mph - N/A   Unknown
12:27 PM 51.8 °F - 50.0 °F 94% 29.93 in 9.0 mi South 2.3 mph - N/A   Unknown
12:32 PM 51.8 °F - 48.2 °F 88% 29.93 in 9.0 mi SSE 4.6 mph - N/A   Unknown
12:33 PM 51.8 °F - 48.2 °F 88% 29.93 in 9.0 mi South 3.5 mph - N/A   Unknown
12:49 PM 51.8 °F - 48.2 °F 88% 29.92 in 9.0 mi ESE 2.3 mph - N/A   Unknown
1:00 PM 55.4 °F - 48.2 °F 77% 29.95 in 9.0 mi SSW 2.3 mph - N/A   Unknown
1:41 PM 53.6 °F - 46.4 °F 77% 29.92 in 9.0 mi West 6.9 mph - N/A   Unknown
1:52 PM 51.8 °F - 48.2 °F 88% 29.93 in 2.5 mi WNW 3.5 mph - N/A   Unknown
2:00 PM 52 °F - 49 °F 87% 29.96 in 2 mi West 4.6 mph - -  
2:00 PM 51.8 °F - 50.0 °F 94% 29.96 in 1.8 mi West 4.6 mph - N/A   Unknown
2:13 PM 51.8 °F - 50.0 °F 94% 29.93 in 4.0 mi West 2.3 mph - N/A   Unknown
2:24 PM 53.6 °F - 50.0 °F 88% 29.93 in 4.0 mi WNW 4.6 mph - N/A   Unknown
3:00 PM 55.4 °F - 46.4 °F 72% 29.96 in 9.0 mi NNW 2.3 mph - N/A   Unknown
4:00 PM 59.0 °F - 46.4 °F 63% 29.94 in 9.0 mi SW 4.6 mph - N/A   Unknown
4:56 PM 51.8 °F - 46.4 °F 82% 29.94 in 2.2 mi NW 6.9 mph - N/A   Unknown
4:58 PM 51.8 °F - 46.4 °F 82% 29.94 in 1.8 mi NNW 6.9 mph - N/A   Unknown
5:00 PM 51 °F - 47 °F 80% 29.98 in 1 mi NW 6.9 mph - -  
5:00 PM 51.8 °F - 46.4 °F 82% 29.98 in 1.5 mi NNW 6.9 mph - N/A   Unknown
5:05 PM 51.8 °F - 48.2 °F 88% 29.94 in 1.8 mi NW 3.5 mph - N/A   Unknown
5:16 PM 50.0 °F - 48.2 °F 94% 29.94 in 9.0 mi WNW 5.8 mph - N/A   Unknown
5:26 PM 50.0 °F - 46.4 °F 87% 29.94 in 9.0 mi WNW 8.1 mph - N/A   Unknown
6:00 PM 50.0 °F - 48.2 °F 94% 29.98 in 5.0 mi West 5.8 mph - N/A   Unknown
7:00 PM 51.8 °F - 46.4 °F 82% 29.97 in 9.0 mi SW 3.5 mph - N/A   Unknown
8:00 PM 49 °F - 47 °F 89% 29.99 in 9 mi SW 3.5 mph - -  
8:00 PM 48.2 °F - 46.4 °F 93% 29.99 in 9.0 mi WSW 2.3 mph - N/A   Unknown
9:00 PM 46.4 °F 44.3 °F 44.6 °F 93% 30.01 in 9.0 mi WSW 4.6 mph - N/A   Unknown
10:00 PM 44.6 °F 41.4 °F 44.6 °F 100% 30.02 in 9.0 mi WSW 5.8 mph - N/A   Unknown
11:00 PM 45 °F - 43 °F 92% 30.03 in 9 mi Calm Calm - -  
11:00 PM 44.6 °F 43.1 °F 42.8 °F 93% 30.03 in 9.0 mi South 3.5 mph - N/A   Unknown